COSMOS 2251 DEB

Satellite information

Favourite Embed

Satellite Type and Status

DEBRISIN ORBIT

Key statistics

Satellite COSMOS 2251 DEB at a glance.

Uptime

11709

Days in orbit

Revolutions

≈ 14.5

Per day

Orbit

LEO

Low Earth Orbit

Inclination

74.0

Latest

Satellite identification and parameters

Extended collection of information and parameters for COSMOS 2251 DEB.

Object identification

Identified? True

Debris? True

Object name: COSMOS 2251 DEB

International designator: 1993-036BPW

Object number (NORAD): 37971

Object ID (CCSDS): 37971

Country: COMMONWEALTH OF INDEPENDENT STATES (CIS)

Current information (Y/N): Y

RCS size: SMALL

Orbital parameters

Period: 99.576 minutes

Inclination: 73.995 deg

SMA: 7116.451 km

Apoapsis: 789.464 km

Periapsis: 687.169 km

RAAN: 342.845 deg

Eccentricy: 0.0071872

Argument of periapsis: 152.5421 deg

Mean anomaly: 207.9565 deg

Mean motion: 14.46130687 rev/day

Mean motion (dot): 0.00006353 rev/day2

B* drag term: 0.0017285 1/REarth

Two-line elements (TLE)

Creation date: July 5, 2025, 5:45 p.m.

Reference frame: TEME

Reference center: EARTH

Epoch: July 5, 2025, 2:37 a.m. UTC

TLE line 0: 0 COSMOS 2251 DEB

TLE line 1: 1 37971U 93036BPW 25186.10952015 .00006353 00000-0 17285-2 0 9995

TLE line 2: 2 37971 73.9950 342.8450 0071872 152.5421 207.9565 14.46130687583542

Live tracking on map

Real-time ground track for satellite COSMOS 2251 DEB.

In-orbit conjunctions

A list of the most updated potential collisions computed for object COSMOS 2251 DEB.

Target Orbit TCA Probability of collision Miss distance Type
SL-16 DEB LEO 2025-06-30 19:20:42 0.0002380187 159.0 (m) DEBRIS
CZ-6A DEB SSO 2025-02-20 19:02:43 0.0001153388 186.0 (m) DEBRIS
CZ-6A DEB LEO 2024-09-27 19:01:12 0.0001079611 92.0 (m) DEBRIS

Associated space launch

Military communications satellite. Destroyed in a collision with Iridium 33.

COSMOS 2251 DEB was lifted into orbit during the mission ‘Kosmos-3M | Strela-2M 51’, on board a Kosmos-3M space rocket.

The launch took place on June 16, 1993, 4:17 a.m. from 132/1 (132L).

For more information about the launch, click the button.

Launch to space Kosmos-3M | Strela-2M 51
Kosmos-3M | Strela-2M 51

Agency: N/A

Status: Launch Successful

Launch date: June 16, 1993, 4:17 a.m. UTC

Rocket: Kosmos-3M

Launch pad: 132/1 (132L)

Location: Plesetsk Cosmodrome, Russian Federation

...

Latest news about this satellite

There are no fresh news available about this satellite. Check back as we update our databases every day.


Newsletter sign-up

Weekly statistics, charts and insights to help you stay on top of the space industry.